Location: Aula-Vintri
(58.3875°N, 22.4322°E)
Time: 20:49:04
(UTC+00:00)

Cosmos 2084 Rocket - Pass Details

Date: 13 October 2019
Orbit: 572 x 609 km, 62.8° (Epoch: 18 November)

Event Time Altitude Azimuth Distance (km) Brightness Sun altitude
Rises 17:22:09 0° 296° (WNW) 2,879 8.5 -15.2°
Reaches altitude 10° 17:24:27 10° 299° (WNW) 1,972 7.3 -15.5°
Maximum altitude 17:28:54 67° 23° (NNE) 664 3.6 -16.1°
Enters shadow 17:30:55 31° 96° (E) 1,070 4.2 -16.4°
